Le nostre stazioni meteo in Italia

Pubblicità
Il mio iltempo24.it
Dalwhinnie, Gran Bretagna (99005): Temperatura & dewpoint: 10.10.2018 03:00:00 - 16.10.2018 03:00:00 (BST)Dalwhinnie, Gran Bretagna (99005): precipitazioni: 10.10.2018 03:00:00 - 16.10.2018 03:00:00 (BST)
Data & Tempo tt [°C] td [°C] rr [mm]
16.10.2018 03:00:00 6,7 3,4 0,0
16.10.2018 02:00:00 6,8 2,9 0,0
16.10.2018 01:00:00 6,6 3,3 0,0
16.10.2018 00:00:00 6,7 3,7 0,0
15.10.2018 23:00:00 7,0 3,8 0,0
15.10.2018 22:00:00 5,8 4,2 0,0
15.10.2018 21:00:00 4,4 3,1 0,0
15.10.2018 20:00:00 3,9 2,6 0,0
15.10.2018 19:00:00 4,2 2,0 0,0
15.10.2018 18:00:00 7,3 4,5 0,0
15.10.2018 17:00:00 9,0 4,3 0,0
15.10.2018 16:00:00 10,8 4,3 0,0
15.10.2018 15:00:00 10,1 4,1 0,0
15.10.2018 14:00:00 10,9 4,1 0,0
15.10.2018 13:00:00 10,4 4,6 0,0
15.10.2018 12:00:00 9,2 4,3 0,0
15.10.2018 11:00:00 8,1 4,4 0,0
15.10.2018 10:00:00 7,0 3,9 0,0
15.10.2018 09:00:00 4,4 2,0 0,0
15.10.2018 08:00:00 5,4 2,9 0,0
15.10.2018 07:00:00 3,5 2,8 0,0
15.10.2018 06:00:00 2,8 2,2 0,0
15.10.2018 05:00:00 2,6 2,1 0,0
15.10.2018 04:00:00 2,7 2,0 0,0
15.10.2018 03:00:00 2,7 1,1 0,0
15.10.2018 02:00:00 3,8 2,9 0,0
15.10.2018 01:00:00 3,0 2,5 0,0
15.10.2018 00:00:00 2,3 1,9 0,0
14.10.2018 23:00:00 2,1 1,6 0,0
14.10.2018 22:00:00 2,2 1,2 0,0
14.10.2018 21:00:00 2,3 1,6 0,0
14.10.2018 20:00:00 2,9 1,7 0,0
14.10.2018 19:00:00 3,7 2,3 0,0
14.10.2018 18:00:00 6,6 3,8 0,0
14.10.2018 17:00:00 8,4 4,4 0,0
14.10.2018 16:00:00 9,7 3,7 0,0
14.10.2018 15:00:00 9,5 3,7 0,0
14.10.2018 14:00:00 10,1 4,7 0,0
14.10.2018 13:00:00 8,0 5,4 0,0
14.10.2018 12:00:00 6,4 4,8 0,0
14.10.2018 11:00:00 5,6 4,5 0,0
14.10.2018 10:00:00 4,2 3,6 0,0
14.10.2018 09:00:00 3,2 2,6 0,0
14.10.2018 08:00:00 3,1 2,2 0,0
14.10.2018 07:00:00 3,6 2,8 0,0
14.10.2018 06:00:00 4,6 3,3 0,0
14.10.2018 05:00:00 5,6 3,0 0,0
14.10.2018 04:00:00 6,4 5,2 0,4
14.10.2018 03:00:00 6,5 5,5 0,0
14.10.2018 02:00:00 6,8 6,1 0,2
14.10.2018 01:00:00 6,8 6,0 0,0
14.10.2018 00:00:00 6,9 6,1 0,2
13.10.2018 23:00:00 7,2 6,5 0,6
13.10.2018 22:00:00 7,8 7,4 0,8
13.10.2018 21:00:00 7,8 7,5 2,2
13.10.2018 20:00:00 7,7 7,4 1,4
13.10.2018 19:00:00 7,8 7,5 3,0
13.10.2018 18:00:00 7,8 7,5 4,2
13.10.2018 17:00:00 7,9 7,4 3,0
13.10.2018 16:00:00 8,1 7,7 3,4
13.10.2018 15:00:00 8,2 7,6 1,8
13.10.2018 14:00:00 8,3 7,7 1,4
13.10.2018 13:00:00 8,3 7,6 -
13.10.2018 12:00:00 8,4 7,4 1,8
13.10.2018 11:00:00 8,7 7,1 0,8
13.10.2018 10:00:00 9,3 6,6 0,0
13.10.2018 09:00:00 9,0 6,2 0,0
13.10.2018 08:00:00 8,8 6,2 0,0
13.10.2018 07:00:00 9,0 6,3 0,0
13.10.2018 06:00:00 8,7 6,8 0,0
13.10.2018 05:00:00 9,0 6,8 0,0
13.10.2018 04:00:00 9,3 6,6 0,0
13.10.2018 03:00:00 9,2 6,5 0,0
13.10.2018 02:00:00 9,6 7,3 0,0
13.10.2018 01:00:00 9,9 6,8 0,0
13.10.2018 00:00:00 10,4 6,8 0,0
12.10.2018 23:00:00 10,6 7,1 0,2
12.10.2018 22:00:00 11,0 6,2 0,0
12.10.2018 21:00:00 10,8 5,6 0,0
12.10.2018 20:00:00 10,7 6,7 0,0
12.10.2018 19:00:00 11,1 8,1 0,8
12.10.2018 18:00:00 10,6 9,4 0,6
12.10.2018 17:00:00 10,3 9,1 2,2
12.10.2018 16:00:00 10,0 8,7 3,0
12.10.2018 15:00:00 10,7 8,7 1,6
12.10.2018 14:00:00 12,3 8,7 0,0
12.10.2018 13:00:00 12,4 7,3 0,0
12.10.2018 12:00:00 11,1 7,8 1,2
12.10.2018 11:00:00 11,6 7,2 0,0
12.10.2018 10:00:00 10,7 8,0 6,2
12.10.2018 09:00:00 9,1 8,1 1,6
12.10.2018 08:00:00 8,4 6,2 4,2
12.10.2018 07:00:00 7,6 6,2 3,8
12.10.2018 06:00:00 8,0 5,9 0,0
12.10.2018 05:00:00 7,5 5,8 0,0
12.10.2018 04:00:00 7,8 5,6 0,0
12.10.2018 03:00:00 7,5 5,9 0,0
12.10.2018 02:00:00 6,9 6,2 0,0
12.10.2018 01:00:00 4,9 3,9 0,0
12.10.2018 00:00:00 6,5 5,5 0,0
11.10.2018 23:00:00 7,9 5,9 0,0
11.10.2018 22:00:00 8,8 7,4 0,0
11.10.2018 21:00:00 9,6 8,4 0,0
11.10.2018 20:00:00 10,1 8,7 0,4
11.10.2018 19:00:00 12,2 10,9 3,0
11.10.2018 18:00:00 12,4 10,6 0,8
11.10.2018 17:00:00 13,2 10,4 0,8
11.10.2018 16:00:00 13,1 11,0 0,2
11.10.2018 15:00:00 13,1 11,3 0,2
11.10.2018 14:00:00 13,1 11,1 0,0
11.10.2018 13:00:00 12,4 10,9 0,0
11.10.2018 12:00:00 12,7 11,1 0,0
11.10.2018 11:00:00 11,5 10,9 0,0
11.10.2018 10:00:00 11,7 10,8 0,0
11.10.2018 09:00:00 12,2 10,2 0,0
11.10.2018 08:00:00 12,2 10,0 0,0
11.10.2018 07:00:00 11,9 9,8 0,0
11.10.2018 06:00:00 11,7 9,6 0,0
11.10.2018 05:00:00 11,8 9,1 0,0
11.10.2018 04:00:00 11,8 8,4 0,0
11.10.2018 03:00:00 12,0 8,7 0,0
11.10.2018 02:00:00 12,0 9,8 0,0
11.10.2018 01:00:00 12,6 10,5 0,0
11.10.2018 00:00:00 12,7 10,6 0,0
10.10.2018 23:00:00 12,1 10,3 0,0
10.10.2018 22:00:00 12,4 10,4 0,0
10.10.2018 21:00:00 12,7 10,6 0,0
10.10.2018 20:00:00 13,3 10,2 0,0
10.10.2018 19:00:00 13,3 10,0 0,0
10.10.2018 18:00:00 14,0 10,4 0,0
10.10.2018 17:00:00 14,6 10,6 0,0
10.10.2018 16:00:00 14,3 10,8 0,0
10.10.2018 15:00:00 15,3 11,1 0,0
10.10.2018 14:00:00 14,8 10,5 0,0
10.10.2018 13:00:00 13,8 9,6 0,0
10.10.2018 12:00:00 14,5 9,5 0,0
10.10.2018 11:00:00 13,2 9,6 0,0
10.10.2018 10:00:00 13,1 9,3 0,0
10.10.2018 09:00:00 11,3 8,8 0,0
10.10.2018 08:00:00 10,8 7,9 0,0
10.10.2018 07:00:00 11,0 7,5 0,0
10.10.2018 06:00:00 11,2 9,3 0,0
10.10.2018 05:00:00 11,7 10,0 0,0
10.10.2018 04:00:00 11,8 10,6 0,0
10.10.2018 03:00:00 12,3 11,0 0,2

tt = Temperatura
td = dewpoint
rr = precipitazioni

Stazioni seguenti

WeatherPro
AMSI
MeteoEarth